• In Latvia
  • List of Countries
  • For 7 days
  • Water Temperature
  • Satellite Maps
  • Weather Map
  • Weather Widgets
  • user-avatar
    Login

    Hourly Weather Aylesbury

    Today, 16 July, Monday

    Time Temperature Precipitation Wind Pressure Humidity
    00:00 +17°C° 0 mm 2 mps 753 mmHg 80%
    01:00 +16°C° 0 mm 2 mps 753 mmHg 82%
    02:00 +16°C° 0 mm 2 mps 753 mmHg 84%
    03:00 +16°C° 0 mm 1 mps 753 mmHg 86%
    04:00 +16°C° 0 mm 1 mps 753 mmHg 83%
    05:00 +18°C° 0 mm 1 mps 753 mmHg 80%
    06:00 +19°C° 0 mm 1 mps 753 mmHg 77%
    07:00 +20°C° 0 mm 1 mps 753 mmHg 70%
    08:00 +21°C° 0 mm 2 mps 753 mmHg 64%
    09:00 +24°C° 0 mm 2 mps 753 mmHg 58%
    10:00 +25°C° 0 mm 2 mps 752 mmHg 54%
    11:00 +26°C° 0 mm 2 mps 752 mmHg 50%
    12:00 +26°C° 0 mm 3 mps 752 mmHg 46%
    13:00 +27°C° 0 mm 3 mps 752 mmHg 45%
    14:00 +27°C° 0 mm 3 mps 752 mmHg 44%
    15:00 +27°C° 0 mm 3 mps 752 mmHg 42%
    16:00 +26°C° 0.2 mm 3 mps 752 mmHg 47%
    17:00 +26°C° 0.2 mm 4 mps 752 mmHg 53%
    18:00 +25°C° 0.2 mm 4 mps 752 mmHg 58%
    19:00 +22°C° 0.4 mm 4 mps 752 mmHg 66%
    20:00 +20°C° 0.4 mm 3 mps 752 mmHg 75%
    21:00 +19°C° 0.4 mm 3 mps 752 mmHg 83%
    22:00 +18°C° 0 mm 3 mps 752 mmHg 86%
    23:00 +17°C° 0 mm 3 mps 752 mmHg 88%

    Tomorrow, 17 July, Tuesday

    Time Temperature Precipitation Wind Pressure Humidity
    00:00 +16°C° 0 mm 3 mps 752 mmHg 91%
    01:00 +14°C° 0 mm 3 mps 752 mmHg 91%
    02:00 +13°C° 0 mm 3 mps 752 mmHg 92%
    03:00 +12°C° 0 mm 3 mps 752 mmHg 92%
    04:00 +13°C° 0 mm 3 mps 753 mmHg 89%
    05:00 +13°C° 0 mm 3 mps 753 mmHg 87%
    06:00 +14°C° 0 mm 3 mps 753 mmHg 84%
    07:00 +17°C° 0 mm 3 mps 753 mmHg 77%
    08:00 +18°C° 0 mm 3 mps 753 mmHg 69%
    09:00 +20°C° 0 mm 3 mps 754 mmHg 62%
    10:00 +21°C° 0.1 mm 3 mps 753 mmHg 59%
    11:00 +22°C° 0.1 mm 3 mps 753 mmHg 55%
    12:00 +24°C° 0.1 mm 3 mps 753 mmHg 51%
    13:00 +24°C° 0.1 mm 3 mps 753 mmHg 51%
    14:00 +22°C° 0.1 mm 4 mps 753 mmHg 52%
    15:00 +22°C° 0.1 mm 4 mps 754 mmHg 52%
    16:00 +22°C° 0 mm 3 mps 754 mmHg 54%
    17:00 +22°C° 0 mm 3 mps 754 mmHg 56%
    18:00 +21°C° 0 mm 3 mps 754 mmHg 58%
    19:00 +20°C° 0 mm 3 mps 754 mmHg 64%
    20:00 +19°C° 0 mm 2 mps 754 mmHg 69%
    21:00 +17°C° 0 mm 2 mps 754 mmHg 74%
    22:00 +16°C° 0 mm 2 mps 754 mmHg 78%
    23:00 +15°C° 0 mm 2 mps 754 mmHg 81%

    Day after tomorrow, 18 July, Wednesday

    Time Temperature Precipitation Wind Pressure Humidity
    00:00 +14°C° 0 mm 2 mps 755 mmHg 84%
    01:00 +14°C° 0 mm 2 mps 755 mmHg 86%
    02:00 +13°C° 0 mm 2 mps 755 mmHg 87%
    03:00 +13°C° 0 mm 1 mps 755 mmHg 89%
    04:00 +14°C° 0 mm 1 mps 755 mmHg 85%
    05:00 +14°C° 0 mm 1 mps 755 mmHg 82%
    06:00 +15°C° 0 mm 1 mps 755 mmHg 79%
    07:00 +18°C° 0 mm 1 mps 755 mmHg 71%
    08:00 +19°C° 0 mm 1 mps 755 mmHg 64%
    09:00 +21°C° 0 mm 1 mps 756 mmHg 57%
    10:00 +22°C° 0 mm 1 mps 756 mmHg 53%
    11:00 +23°C° 0 mm 2 mps 755 mmHg 49%
    12:00 +25°C° 0 mm 2 mps 755 mmHg 45%
    13:00 +25°C° 0 mm 1 mps 755 mmHg 45%
    14:00 +24°C° 0 mm 1 mps 755 mmHg 45%
    15:00 +24°C° 0 mm 1 mps 755 mmHg 46%
    16:00 +24°C° 0 mm 1 mps 755 mmHg 48%
    17:00 +24°C° 0 mm 1 mps 755 mmHg 50%
    18:00 +24°C° 0 mm 1 mps 755 mmHg 52%
    19:00 +22°C° 0 mm 1 mps 755 mmHg 57%
    20:00 +21°C° 0 mm 1 mps 756 mmHg 63%
    21:00 +19°C° 0 mm 1 mps 756 mmHg 68%
    22:00 +18°C° 0 mm 1 mps 756 mmHg 72%
    23:00 +18°C° 0 mm 1 mps 756 mmHg 76%

    19 July, Thursday

    Time Temperature Precipitation Wind Pressure Humidity
    00:00 +16°C° 0 mm 1 mps 756 mmHg 80%
    01:00 +15°C° 0 mm 1 mps 756 mmHg 81%
    02:00 +15°C° 0 mm 1 mps 756 mmHg 83%
    03:00 +15°C° 0 mm 1 mps 755 mmHg 84%
    04:00 +16°C° 0 mm 1 mps 756 mmHg 81%
    05:00 +16°C° 0 mm 1 mps 756 mmHg 79%
    06:00 +18°C° 0 mm 1 mps 756 mmHg 76%
    07:00 +18°C° 0 mm 0 mps 756 mmHg 69%
    08:00 +20°C° 0 mm 0 mps 756 mmHg 63%
    09:00 +22°C° 0 mm 0 mps 756 mmHg 56%
    10:00 +24°C° 0.1 mm 1 mps 756 mmHg 54%
    11:00 +25°C° 0.1 mm 1 mps 756 mmHg 51%
    12:00 +26°C° 0.1 mm 1 mps 755 mmHg 48%
    13:00 +26°C° 0 mm 1 mps 755 mmHg 48%
    14:00 +26°C° 0 mm 1 mps 755 mmHg 47%
    15:00 +24°C° 0 mm 0 mps 755 mmHg 47%
    16:00 +23°C° 0 mm 0 mps 755 mmHg 50%
    17:00 +23°C° 0 mm 0 mps 755 mmHg 52%
    18:00 +23°C° 0 mm 0 mps 754 mmHg 54%
    19:00 +23°C° 0 mm 1 mps 754 mmHg 60%
    20:00 +21°C° 0 mm 1 mps 754 mmHg 66%
    21:00 +19°C° 0 mm 2 mps 754 mmHg 72%
    22:00 +18°C° 0 mm 2 mps 754 mmHg 75%
    23:00 +17°C° 0 mm 2 mps 754 mmHg 78%

    20 July, Friday

    Time Temperature Precipitation Wind Pressure Humidity
    00:00 +16°C° 0 mm 2 mps 754 mmHg 81%
    01:00 +16°C° 0 mm 2 mps 754 mmHg 82%
    02:00 +16°C° 0 mm 2 mps 754 mmHg 82%
    03:00 +15°C° 0 mm 2 mps 753 mmHg 83%
    04:00 +16°C° 0 mm 2 mps 753 mmHg 81%
    05:00 +16°C° 0 mm 2 mps 753 mmHg 78%
    06:00 +16°C° 0 mm 2 mps 753 mmHg 76%
    07:00 +18°C° 0 mm 2 mps 753 mmHg 70%
    08:00 +20°C° 0 mm 2 mps 753 mmHg 63%
    09:00 +23°C° 0 mm 2 mps 753 mmHg 56%
    10:00 +24°C° 0.1 mm 2 mps 752 mmHg 54%
    11:00 +25°C° 0.1 mm 1 mps 752 mmHg 51%
    12:00 +26°C° 0.1 mm 1 mps 752 mmHg 48%
    13:00 +26°C° 0.2 mm 1 mps 752 mmHg 49%
    14:00 +25°C° 0.2 mm 2 mps 752 mmHg 50%
    15:00 +25°C° 0.2 mm 2 mps 751 mmHg 50%
    16:00 +25°C° 0.5 mm 2 mps 751 mmHg 53%
    17:00 +24°C° 0.5 mm 2 mps 751 mmHg 55%
    18:00 +24°C° 0.5 mm 2 mps 751 mmHg 58%
    19:00 +21°C° 0.1 mm 2 mps 751 mmHg 63%
    20:00 +20°C° 0.1 mm 2 mps 752 mmHg 69%
    21:00 +18°C° 0.1 mm 2 mps 752 mmHg 75%
    22:00 +18°C° 0 mm 2 mps 752 mmHg 77%
    23:00 +17°C° 0 mm 2 mps 752 mmHg 80%

    21 July, Saturday

    Time Temperature Precipitation Wind Pressure Humidity
    00:00 +16°C° 0 mm 2 mps 752 mmHg 82%
    01:00 +16°C° 0 mm 2 mps 752 mmHg 84%
    02:00 +15°C° 0 mm 2 mps 752 mmHg 85%
    03:00 +15°C° 0 mm 2 mps 751 mmHg 87%
    04:00 +16°C° 0 mm 2 mps 752 mmHg 85%
    05:00 +16°C° 0 mm 2 mps 752 mmHg 83%
    06:00 +17°C° 0 mm 2 mps 752 mmHg 81%
    07:00 +19°C° 0 mm 2 mps 752 mmHg 73%
    08:00 +21°C° 0 mm 2 mps 753 mmHg 65%
    09:00 +24°C° 0 mm 2 mps 753 mmHg 57%
    10:00 +25°C° 0 mm 2 mps 753 mmHg 52%
    11:00 +26°C° 0 mm 2 mps 753 mmHg 47%
    12:00 +27°C° 0 mm 2 mps 753 mmHg 43%
    13:00 +27°C° 0.1 mm 2 mps 753 mmHg 42%
    14:00 +28°C° 0.1 mm 2 mps 753 mmHg 41%
    15:00 +28°C° 0.1 mm 2 mps 753 mmHg 41%
    16:00 +27°C° 0 mm 2 mps 753 mmHg 45%
    17:00 +26°C° 0 mm 2 mps 753 mmHg 49%
    18:00 +25°C° 0 mm 3 mps 754 mmHg 53%
    19:00 +24°C° 0 mm 2 mps 754 mmHg 57%
    20:00 +21°C° 0 mm 2 mps 754 mmHg 62%
    21:00 +20°C° 0 mm 2 mps 755 mmHg 66%
    22:00 +19°C° 0 mm 2 mps 755 mmHg 69%
    23:00 +18°C° 0 mm 2 mps 755 mmHg 71%
    Show more